USAK current weather conditions

sailwx.info

Wind at 0 knots

Air temperature -3.0° C
Visibility: greater than 5.4 NM
Dewpoint -7.0° C

Last reported at 2019-Dec-06 18:50 UTC.
Time now 2019-Dec-06 20:13 UTC

Location: N 38°40' E 029°25'.
View on Google Maps.

See reports from other nearby stations

  
Tides and Currents Weather Stations Pressure Air Temp Water Temp Dewpoint Dewpoint Depression Visibility Wind Speed Wind Dir Waves Ship Positions
date/time (UTC)wind fromknots sea level pressurealtimeterstation pressurevisibilityair tempwater tempwave heightnotes
2019-Dec-06 18:50 5.4-3.0
2019-Dec-06 17:50 270 5 5.4-1.0
2019-Dec-06 16:50 080 8 5.4 2.0
2019-Dec-06 15:50 090 11 5.4 2.0
2019-Dec-06 14:50 090 4 5.4 5.0
2019-Dec-06 13:50 060 12 5.4 8.0
2019-Dec-06 12:50 070 14 5.4 9.0
2019-Dec-06 11:50 070 14 5.410.0
2019-Dec-06 10:50 070 12 5.410.0
2019-Dec-06 09:50 080 12 5.4 9.0
2019-Dec-06 08:50 080 7 5.4 8.0
2019-Dec-06 07:50 070 15 5.4 5.0
2019-Dec-06 06:50 060 11 5.4 3.0
2019-Dec-06 05:50 050 17 5.4 1.0
2019-Dec-06 04:50 070 13 5.4-0.0
2019-Dec-06 03:50 050 12 5.4-0.0
2019-Dec-05 13:50 070 12 5.4 4.0
2019-Dec-05 12:50 060 13 5.4 4.0
2019-Dec-05 11:50 070 15 5.4 5.0
2019-Dec-05 10:50 070 13 5.4 6.0
2019-Dec-05 09:50 080 18 5.4 5.0
2019-Dec-05 08:50 080 17 5.4 4.0
2019-Dec-05 07:50 070 14 5.4 3.0
2019-Dec-05 06:50 070 9 5.4 2.0
2019-Dec-05 05:50 060 7 5.4-0.0
2019-Dec-05 04:50 020 2 5.4-2.0
2019-Dec-05 03:50 5.4-2.0
2019-Dec-05 02:50 5.4-2.0